Location: *
(57.8420°S, 159.8600°W)
Time: 05:28:33
(UTC+00:00)

SAR-Lupe-1 - Pass Details

Date: 18 May 2021
Orbit: 482 x 483 km, 98.2° (Epoch: 30 March)

Event Time Altitude Azimuth Distance (km) Brightness Sun altitude
Rises 04:17:35 0° 32° (NNE) 2,567 7.6 -14.1°
Reaches altitude 10° 04:19:40 10° 36° (NE) 1,693 6.6 -14.4°
Maximum altitude 04:23:13 52° 113° (ESE) 628 4.2 -14.8°
Drops below altitude 10° 04:26:49 10° 189° (S) 1,715 6.8 -15.3°
Sets 04:28:56 0° 193° (SSW) 2,604 7.8 -15.6°
